Regional Weather Roundup
Issued by NWS Little Rock, AR

Home | Current Version | Previous Version | Text Only | Print | Product List | Glossary On
Versions: 1 2 3 4 5 6 7 8 9 10 11 12 13 14 15 16 17 18 19 20 21 22 23 24 25 26 27 28 29 30 31 32 33 34 35 36 37 38 39 40 41 42 43 44 45 46 47 48 49 50
000
ASUS44 KLZK 070605
RWRLZK

WEATHER ROUNDUP FOR ARKANSAS
NATIONAL WEATHER SERVICE LITTLE ROCK AR
100 AM CDT TUE JUL 07 2015

NOTE: "FAIR" INDICATES FEW OR NO CLOUDS BELOW 12,000 FEET WITH NO
SIGNIFICANT WEATHER AND/OR OBSTRUCTIONS TO VISIBILITY.

ARZ001-003-010-029-070700-
NORTHWEST ARKANSAS

CITY           SKY/WX    TMP DP  RH WIND       PRES   REMARKS
FAYETTEVILLE   CLOUDY    77  70  79 S9        29.99S
6HR MIN TEMP:  76; 6HR MAX TEMP:  80;

FORT SMITH     CLOUDY    80  70  71 CALM      29.96S
6HR MIN TEMP:  79; 6HR MAX TEMP:  86;

HARRISON       CLOUDY    75  70  84 S5        29.99F
6HR MIN TEMP:  74; 6HR MAX TEMP:  79;

BENTONVILLE    CLOUDY    79  68  69 S8        29.98F
6HR MIN TEMP:  77; 6HR MAX TEMP:  82;

ROGERS         CLOUDY    79  70  74 S13G21    29.99S
6HR MIN TEMP:  78; 6HR MAX TEMP:  82;

SILOAM SPGS    CLOUDY    77  66  69 S12       29.98F
6HR MIN TEMP:  75; 6HR MAX TEMP:  81;

HIGHFILL       CLOUDY    78  71  79 S10       29.98R
6HR MIN TEMP:  77; 6HR MAX TEMP:  82;

$$

ARZ004-005-016-070700-
NORTH CENTRAL ARKANSAS

CITY           SKY/WX    TMP DP  RH WIND       PRES   REMARKS
BATESVILLE     MOCLDY    77  73  88 S3        30.00S
6HR MIN TEMP:  77; 6HR MAX TEMP:  81;

FLIPPIN        CLOUDY    77  70  78 CALM      29.95F
6HR MIN TEMP:  77; 6HR MAX TEMP:  84;

MTN HOME       CLOUDY    76  71  85 S6        29.97F
6HR MIN TEMP:  76; 6HR MAX TEMP:  82;

$$

ARZ040-041-070700-
WEST CENTRAL ARKANSAS

CITY           SKY/WX    TMP DP  RH WIND       PRES   REMARKS
MENA           CLOUDY    82  72  69 S7        30.02S HX  87
MOUNT IDA      CLOUDY    80  72  76 VRB3      30.00F
6HR MIN TEMP:  79; 6HR MAX TEMP:  85;

$$

ARZ009-017-025-026-028-070700-
NORTHEAST ARKANSAS

CITY           SKY/WX    TMP DP  RH WIND       PRES   REMARKS
JONESBORO      CLOUDY    72  71  97 S6        30.00F
6HR MIN TEMP:  72; 6HR MAX TEMP:  84; 6HR PCP:  0.55;

NEWPORT        MOCLDY    78  77  97 S9        30.01F
6HR MIN TEMP:  76; 6HR MAX TEMP:  80; 6HR PCP:  0.51;

WALNUT RIDGE   CLOUDY    75  72  88 S14       29.98F
6HR MIN TEMP:  75; 6HR MAX TEMP:  82;

BLYTHEVILLE    CLOUDY    73  73 100 S8        30.01F
6HR MIN TEMP:  73; 6HR MAX TEMP:  84; 6HR PCP:  0.10;

$$

ARZ022-023-033-042-044-070700-
CENTRAL ARKANSAS

CITY           SKY/WX    TMP DP  RH WIND       PRES   REMARKS
LITTLE ROCK    CLOUDY    78  73  84 S6        30.02S
6HR MIN TEMP:  78; 6HR MAX TEMP:  86;

N LITTLE ROCK    N/A     80  75  87 S7        30.02S
6HR MIN TEMP:  79; 6HR MAX TEMP:  85;

JACKSONVILLE   MOCLDY    79  75  85 S6        30.01F
6HR MIN TEMP:  78; 6HR MAX TEMP:  86; 6HR PCP: TRACE;

SEARCY         MOCLDY    77  75  93 S3        30.03R
6HR MIN TEMP:  76; 6HR MAX TEMP:  84;

HOT SPRINGS    MOCLDY    81  73  76 S5        30.02F HX  86
6HR MIN TEMP:  79; 6HR MAX TEMP:  86;

RUSSELLVILLE   CLOUDY    79  74  84 CALM      29.99F
6HR MIN TEMP:  78; 6HR MAX TEMP:  85;

CLINTON        FAIR      73  73 100 CALM      30.02F FOG
$$

ARZ036-070700-
EAST ARKANSAS

CITY           SKY/WX    TMP DP  RH WIND       PRES   REMARKS
WEST MEMPHIS   CLOUDY    77  76  96 S9        30.02S
6HR MIN TEMP:  77; 6HR MAX TEMP:  82;

$$

ARZ050-053-066-070-073-070700-
SOUTHWEST ARKANSAS

CITY           SKY/WX    TMP DP  RH WIND       PRES   REMARKS
ARKADELPHIA    FAIR      78  78 100 S3        30.02S
6HR MIN TEMP:  77; 6HR MAX TEMP:  89;

CAMDEN         MOCLDY    75  72  88 MISG      30.04S
TEXARKANA      MOCLDY    79  72  79 S9        30.02S
6HR MIN TEMP:  79; 6HR MAX TEMP:  87;

EL DORADO      MOCLDY    77  73  87 S7        30.06S
6HR MIN TEMP:  77; 6HR MAX TEMP:  86;

DE QUEEN       CLOUDY    79  73  82 S6        29.99R
6HR MIN TEMP:  76; 6HR MAX TEMP:  86;

$$

ARZ056-057-069-070700-
SOUTHEAST ARKANSAS

CITY           SKY/WX    TMP DP  RH WIND       PRES   REMARKS
PINE BLUFF     MOCLDY    78  75  90 S9        30.04S
6HR MIN TEMP:  77; 6HR MAX TEMP:  85;

STUTTGART      MOCLDY    81  75  83 MISG      30.02S HX  86
6HR MIN TEMP:  81; 6HR MAX TEMP:  86;

MONTICELLO     MOCLDY    79  76  90 S7        30.06R
6HR MIN TEMP:  79; 6HR MAX TEMP:  87;


$$




USA.gov is the U.S. government's official web portal to all federal, state and local government web resources and services.